Fort Knox, KY

12:28 PM EST on November 18, 2019 (GMT -0500)
Godman Army Air Field

Weather History for KFTK - October, 2019

Change the Weather History Date:

Monday, October 21, 2019

  Actual Average Record
Temperature  
Mean Temperature 63 °F -  
Max Temperature 72 °F 64 °F 80 °F (2007)
Min Temperature 54 °F 44 °F 28 °F (2018)
Degree Days  
Heating Degree Days 2    
Growing Degree Days 13 (Base 50)    
Moisture  
Dew Point 59 °F    
Average Humidity 88    
Maximum Humidity 100    
Minimum Humidity 64    
Precipitation  
Precipitation 0.03 in - - ()
Sea Level Pressure  
Sea Level Pressure 29.79 in    
Wind  
Wind Speed 11 mph (SSE)    
Max Wind Speed 25 mph    
Max Gust Speed 32 mph    
Visibility 10 miles    
Events Rain    
Averages and records for this station are not official NWS values.
T = Trace of Precipitation, MM = Missing Value Source: NWS Daily Summary

Daily Weather History Graph

Daily Weather History Graph

Search for Another Location

Airport or City:

Astronomy

Oct. 21, 2019 Rise Set
Actual Time 7:57 AM EDT 6:58 PM EDT
Civil Twilight 7:31 AM EDT 7:25 PM EDT
Nautical Twilight 7:00 AM EDT 7:55 PM EDT
Astronomical Twilight 6:30 AM EDT 8:26 PM EDT
Moon 12:12 AM EDT (10/21) 3:12 PM EDT (10/21)
Length of Visible Light 11h 53m
Length of Day
11h 00m
Waning Gibbous, 48% of the Moon is Illuminated
Oct 21
Waning Gibbous
Oct 27
New
Nov 4
First Quarter
Nov 12
Full
Nov 19
Last Quarter

Hourly Weather History & Observations

Time (EDT) Temp. Dew Point Humidity Pressure Visibility Wind Dir Wind Speed Gust Speed Precip Events Conditions
12:56 AM 55.0 °F 54.5 °F 98% 29.93 in 10.0 mi East 4.6 mph - N/A   Clear
1:35 AM 55.4 °F 55.4 °F 100% 29.91 in 10.0 mi East 4.6 mph - N/A   Clear
1:56 AM 55.4 °F 55.0 °F 99% 29.90 in 10.0 mi East 5.8 mph - N/A   Clear
2:12 AM 55.4 °F 55.4 °F 100% 29.88 in 10.0 mi East 5.8 mph - N/A   Clear
2:56 AM 54.9 °F 54.9 °F 100% 29.87 in 10.0 mi ESE 5.8 mph - N/A   Clear
3:56 AM 55.2 °F 55.2 °F 100% 29.86 in 10.0 mi East 4.6 mph - N/A   Clear
4:56 AM 55.0 °F 55.0 °F 100% 29.85 in 10.0 mi ENE 4.6 mph - N/A   Clear
5:56 AM 54.5 °F 54.5 °F 100% 29.84 in 10.0 mi East 6.9 mph - N/A   Clear
6:25 AM 55.4 °F 55.4 °F 100% 29.82 in 10.0 mi East 8.1 mph - N/A   Clear
6:56 AM 55.4 °F 55.4 °F 100% 29.81 in 10.0 mi East 8.1 mph - N/A   Clear
7:56 AM 57.0 °F 57.0 °F 100% 29.81 in 10.0 mi ESE 8.1 mph - N/A   Overcast
8:11 AM 59.0 °F 59.0 °F 100% 29.80 in 10.0 mi ESE 9.2 mph - N/A Rain Light Rain
8:21 AM 59.0 °F 59.0 °F 100% 29.78 in 9.0 mi ESE 6.9 mph - N/A Rain Light Rain
8:23 AM 59.0 °F 59.0 °F 100% 29.78 in 10.0 mi East 6.9 mph - N/A   Overcast
8:45 AM 59.0 °F 59.0 °F 100% 29.76 in 10.0 mi East 10.4 mph - N/A   Overcast
9:11 AM 62.6 °F 59.0 °F 88% 29.78 in 10.0 mi SE 12.7 mph - N/A   Overcast
9:15 AM 62.6 °F 59.0 °F 88% 29.77 in 10.0 mi SE 16.1 mph 24.2 mph N/A Rain Light Rain
9:26 AM 64.4 °F 59.0 °F 83% 29.77 in 10.0 mi SE 19.6 mph 26.5 mph N/A   Overcast
9:56 AM 64.2 °F 58.3 °F 81% 29.76 in 10.0 mi SSE 16.1 mph 27.6 mph 0.01 in   Mostly Cloudy
10:56 AM 66.2 °F 58.8 °F 77% 29.77 in 10.0 mi South 17.3 mph 23.0 mph N/A   Scattered Clouds
11:15 AM 66.2 °F 59.0 °F 78% 29.79 in 10.0 mi South 19.6 mph 25.3 mph N/A   Mostly Cloudy
11:56 AM 69.8 °F 59.5 °F 70% 29.78 in 10.0 mi South 25.3 mph 31.1 mph N/A   Overcast
12:23 PM 71.6 °F 59.0 °F 64% 29.76 in 10.0 mi South 18.4 mph 31.1 mph N/A   Mostly Cloudy
12:56 PM 72.0 °F 59.9 °F 66% 29.75 in 10.0 mi South 23.0 mph 29.9 mph N/A   Overcast
1:05 PM 71.6 °F 60.8 °F 69% 29.73 in 10.0 mi South 21.9 mph 32.2 mph N/A   Overcast
1:36 PM 71.6 °F 60.8 °F 69% 29.75 in 10.0 mi South 23.0 mph 32.2 mph N/A   Overcast
1:56 PM 71.8 °F 60.6 °F 68% 29.75 in 10.0 mi South 19.6 mph 31.1 mph N/A   Overcast
2:50 PM 69.8 °F 60.8 °F 73% 29.77 in 10.0 mi South 15.0 mph 25.3 mph N/A   Overcast
2:56 PM 70.0 °F 60.4 °F 72% 29.77 in 10.0 mi South 18.4 mph 25.3 mph N/A   Overcast
3:01 PM 69.8 °F 60.8 °F 73% 29.75 in 10.0 mi South 16.1 mph 25.3 mph N/A   Overcast
3:06 PM 69.8 °F 60.8 °F 73% 29.75 in 10.0 mi South 18.4 mph 26.5 mph N/A Rain Light Rain
3:34 PM 68.0 °F 60.8 °F 78% 29.75 in 10.0 mi South 21.9 mph 25.3 mph N/A   Overcast
3:41 PM 68.0 °F 60.8 °F 78% 29.76 in 10.0 mi South 18.4 mph 27.6 mph N/A Rain Light Rain
3:56 PM 67.5 °F 62.4 °F 84% 29.76 in 10.0 mi South 15.0 mph 24.2 mph 0.00 in Rain Light Rain
4:38 PM 66.2 °F 62.6 °F 88% 29.74 in 10.0 mi South 15.0 mph - N/A Rain Light Rain
4:51 PM 66.2 °F 62.6 °F 88% 29.72 in 10.0 mi SSE 17.3 mph - N/A Rain Light Rain
4:56 PM 66.2 °F 62.6 °F 88% 29.72 in 10.0 mi SSE 17.3 mph - 0.00 in Rain Light Rain
5:32 PM 64.4 °F 62.6 °F 94% 29.74 in 10.0 mi South 15.0 mph 21.9 mph N/A Rain Light Rain
5:56 PM 64.2 °F 61.5 °F 91% 29.75 in 10.0 mi South 12.7 mph - 0.02 in Rain Light Rain
6:15 PM 64.4 °F 60.8 °F 88% 29.75 in 10.0 mi South 12.7 mph - N/A   Light Drizzle
6:16 PM 64.4 °F 60.8 °F 88% 29.75 in 10.0 mi South 13.8 mph - N/A   Partly Cloudy
6:17 PM 64.4 °F 60.8 °F 88% 29.75 in 10.0 mi South 13.8 mph - N/A   Light Drizzle
6:22 PM 64.4 °F 60.8 °F 88% 29.75 in 10.0 mi SSE 11.5 mph - N/A   Clear
6:35 PM 62.6 °F 60.8 °F 94% 29.75 in 10.0 mi South 12.7 mph - N/A Rain Light Rain
6:42 PM 62.6 °F 60.8 °F 94% 29.76 in 10.0 mi South 10.4 mph - N/A Rain Light Rain
6:46 PM 62.6 °F 60.8 °F 94% 29.75 in 10.0 mi SSE 12.7 mph - N/A   Mostly Cloudy
6:56 PM 63.3 °F 61.2 °F 93% 29.76 in 10.0 mi SSW 9.2 mph - 0.00 in   Mostly Cloudy
7:11 PM 62.6 °F 60.8 °F 94% 29.78 in 10.0 mi South 10.4 mph - N/A   Overcast
7:26 PM 62.6 °F 60.8 °F 94% 29.78 in 10.0 mi South 10.4 mph - N/A   Overcast
7:56 PM 62.6 °F 59.9 °F 91% 29.77 in 10.0 mi South 12.7 mph - N/A   Overcast
8:26 PM 62.6 °F 59.0 °F 88% 29.78 in 10.0 mi South 10.4 mph - N/A   Overcast
8:56 PM 61.7 °F 59.0 °F 91% 29.79 in 10.0 mi South 16.1 mph - N/A   Mostly Cloudy
9:26 PM 62.6 °F 59.0 °F 88% 29.78 in 10.0 mi South 10.4 mph - N/A   Overcast
9:56 PM 61.5 °F 58.5 °F 90% 29.78 in 10.0 mi South 11.5 mph - N/A   Mostly Cloudy
10:14 PM 60.8 °F 59.0 °F 94% 29.80 in 10.0 mi South 10.4 mph - N/A   Mostly Cloudy
10:50 PM 60.8 °F 59.0 °F 94% 29.82 in 10.0 mi South 9.2 mph - N/A   Overcast
10:56 PM 61.0 °F 59.0 °F 93% 29.82 in 10.0 mi SSW 9.2 mph - N/A   Overcast
11:14 PM 60.8 °F 59.0 °F 94% 29.84 in 10.0 mi SSW 11.5 mph - N/A   Overcast
11:44 PM 60.8 °F 59.0 °F 94% 29.83 in 10.0 mi SSW 9.2 mph - N/A   Scattered Clouds
11:56 PM 60.1 °F 58.3 °F 94% 29.83 in 10.0 mi SSW 10.4 mph - N/A   Partly Cloudy